Location: Ben Robins Landing
(38.6582°N, 75.1566°W)
Time: 07:34:21
(UTC+00:00)

Cosmos 1743 - Pass Details

Date: 10 September 2024
Orbit: 464 x 475 km, 82.5° (Epoch: 12 October)

Event Time Altitude Azimuth Distance (km) Brightness Sun altitude
Rises 23:48:33 0° 176° (S) 2,510 6.0 -7.1°
Reaches altitude 10° 23:50:40 10° 171° (S) 1,633 5.0 -7.5°
Maximum altitude 23:54:08 53° 94° (E) 586 2.6 -8.2°
Drops below altitude 10° 23:57:38 10° 17° (NNE) 1,637 5.2 -8.9°
Sets 23:59:44 0° 13° (NNE) 2,515 6.2 -9.3°
